ENGINEERING TRACK TESTING
Weather & Rail Temperature Monitoring

Weather station wilmington

Wilmington Shops (Wilmington, DE)

Measurement History

Home Current History Weekly graphs

,

to download data from the start of , to the end of ,

Conditions for past 24 hours (since 09/01/2026 02:22 AM)

Time Track 2 E rail Track 2 W rail Track 3 E rail Track 3 W rail Outside Air
Temperature
Solar
Radiation
Max. Wind Humidity Air Pressure Rain
SpeedDir
09/01/2026 08:30 PM 81 °F 80 °F 80 °F 80 °F 78.6 °F 0 watt/m2 18 mph WNW 80 % 29.898 in Hg 0.02 in
09/01/2026 08:15 PM 85 °F 85 °F 85 °F 85 °F 82.9 °F 0 watt/m2 11 mph NE 82 % 29.894 in Hg 0.07 in
09/01/2026 08:00 PM 89 °F 89 °F 89 °F 89 °F 88.7 °F 0 watt/m2 0 mph --- 78 % 29.896 in Hg 0.03 in
09/01/2026 07:45 PM 94 °F 94 °F 94 °F 94 °F 89.3 °F 8 watt/m2 4 mph SW 71 % 29.874 in Hg 0 in
09/01/2026 07:30 PM 96 °F 96 °F 97 °F 96 °F 89.6 °F 11 watt/m2 6 mph SW 67 % 29.878 in Hg 0 in
09/01/2026 07:15 PM 98 °F 98 °F 98 °F 98 °F 89.9 °F 23 watt/m2 6 mph WSW 67 % 29.895 in Hg 0 in
09/01/2026 07:00 PM 99 °F 99 °F 99 °F 99 °F 90.2 °F 40 watt/m2 8 mph SW 66 % 29.891 in Hg 0 in
09/01/2026 06:45 PM 100 °F 100 °F 100 °F 100 °F 90.6 °F 59 watt/m2 6 mph SW 66 % 29.89 in Hg 0 in
09/01/2026 06:30 PM 102 °F 102 °F 102 °F 102 °F 91 °F 95 watt/m2 6 mph SW 65 % 29.887 in Hg 0 in
09/01/2026 06:15 PM 104 °F 104 °F 103 °F 104 °F 91.3 °F 77 watt/m2 10 mph WSW 64 % 29.892 in Hg 0 in
09/01/2026 06:00 PM 105 °F 106 °F 106 °F 105 °F 92.1 °F 136 watt/m2 7 mph WSW 63 % 29.89 in Hg 0 in
09/01/2026 05:45 PM 107 °F 107 °F 108 °F 108 °F 92.5 °F 239 watt/m2 11 mph SSW 62 % 29.894 in Hg 0 in
09/01/2026 05:30 PM 108 °F 108 °F 109 °F 108 °F 92.7 °F 327 watt/m2 10 mph SW 62 % 29.894 in Hg 0 in
09/01/2026 05:15 PM 108 °F 108 °F 109 °F 108 °F 92.7 °F 364 watt/m2 12 mph WSW 62 % 29.892 in Hg 0 in
09/01/2026 05:00 PM 108 °F 109 °F 109 °F 109 °F 92.6 °F 357 watt/m2 12 mph WSW 62 % 29.895 in Hg 0 in
09/01/2026 04:45 PM 108 °F 109 °F 109 °F 109 °F 92.4 °F 375 watt/m2 14 mph SW 62 % 29.899 in Hg 0 in
09/01/2026 04:30 PM 109 °F 110 °F 110 °F 109 °F 91.8 °F 228 watt/m2 11 mph WNW 62 % 29.906 in Hg 0 in
09/01/2026 04:15 PM 111 °F 111 °F 112 °F 112 °F 92.4 °F 434 watt/m2 14 mph SW 60 % 29.906 in Hg 0 in
09/01/2026 04:00 PM 113 °F 112 °F 114 °F 113 °F 93.1 °F 588 watt/m2 12 mph SW 59 % 29.909 in Hg 0 in
09/01/2026 03:45 PM 113 °F 113 °F 113 °F 113 °F 92.6 °F 598 watt/m2 12 mph SW 60 % 29.914 in Hg 0 in
09/01/2026 03:30 PM 113 °F 113 °F 113 °F 113 °F 92.2 °F 679 watt/m2 10 mph SW 61 % 29.919 in Hg 0 in
09/01/2026 03:15 PM 112 °F 112 °F 113 °F 112 °F 91.8 °F 680 watt/m2 10 mph SW 62 % 29.923 in Hg 0 in
09/01/2026 03:00 PM 113 °F 112 °F 113 °F 112 °F 91.2 °F 692 watt/m2 11 mph SW 63 % 29.928 in Hg 0 in
09/01/2026 02:45 PM 112 °F 112 °F 113 °F 112 °F 91 °F 754 watt/m2 11 mph WSW 62 % 29.929 in Hg 0 in
09/01/2026 02:30 PM 111 °F 110 °F 111 °F 111 °F 90.5 °F 752 watt/m2 9 mph SSW 64 % 29.931 in Hg 0 in
09/01/2026 02:15 PM 110 °F 109 °F 110 °F 109 °F 89.8 °F 771 watt/m2 10 mph SW 64 % 29.93 in Hg 0 in
09/01/2026 02:00 PM 107 °F 107 °F 108 °F 107 °F 89.5 °F 794 watt/m2 10 mph SW 64 % 29.933 in Hg 0 in
09/01/2026 01:45 PM 104 °F 104 °F 104 °F 104 °F 88.5 °F 817 watt/m2 8 mph SW 66 % 29.935 in Hg 0 in
09/01/2026 01:30 PM 101 °F 101 °F 101 °F 101 °F 87.2 °F 569 watt/m2 7 mph SW 69 % 29.946 in Hg 0 in
09/01/2026 01:15 PM 98 °F 98 °F 98 °F 98 °F 86.3 °F 394 watt/m2 6 mph WSW 72 % 29.946 in Hg 0 in
09/01/2026 01:00 PM 98 °F 98 °F 98 °F 98 °F 86.3 °F 183 watt/m2 5 mph WSW 72 % 29.951 in Hg 0 in
09/01/2026 12:45 PM 98 °F 98 °F 98 °F 99 °F 86.4 °F 275 watt/m2 7 mph SW 69 % 29.958 in Hg 0 in
09/01/2026 12:30 PM 99 °F 98 °F 99 °F 99 °F 86.5 °F 407 watt/m2 5 mph WSW 70 % 29.961 in Hg 0 in
09/01/2026 12:15 PM 98 °F 97 °F 98 °F 98 °F 86 °F 227 watt/m2 7 mph SW 73 % 29.963 in Hg 0 in
09/01/2026 12:00 PM 99 °F 98 °F 99 °F 99 °F 85.9 °F 116 watt/m2 7 mph SW 72 % 29.961 in Hg 0 in
09/01/2026 11:45 AM 101 °F 100 °F 101 °F 100 °F 86.3 °F 200 watt/m2 7 mph SW 71 % 29.959 in Hg 0 in
09/01/2026 11:30 AM 100 °F 100 °F 101 °F 100 °F 86 °F 579 watt/m2 6 mph SW 73 % 29.964 in Hg 0 in
09/01/2026 11:15 AM 97 °F 97 °F 98 °F 98 °F 84.6 °F 465 watt/m2 5 mph WSW 77 % 29.968 in Hg 0 in
09/01/2026 11:00 AM 94 °F 94 °F 95 °F 94 °F 83.4 °F 491 watt/m2 6 mph WSW 79 % 29.973 in Hg 0 in
09/01/2026 10:45 AM 92 °F 91 °F 92 °F 92 °F 82.5 °F 365 watt/m2 9 mph SW 81 % 29.975 in Hg 0 in
09/01/2026 10:30 AM 90 °F 90 °F 90 °F 90 °F 81.9 °F 306 watt/m2 7 mph WSW 83 % 29.974 in Hg 0 in
09/01/2026 10:15 AM 88 °F 88 °F 89 °F 89 °F 81.1 °F 258 watt/m2 6 mph WSW 84 % 29.974 in Hg 0 in
09/01/2026 10:00 AM 88 °F 88 °F 88 °F 88 °F 80.6 °F 165 watt/m2 6 mph WSW 86 % 29.966 in Hg 0 in
09/01/2026 09:45 AM 88 °F 88 °F 89 °F 89 °F 80.3 °F 155 watt/m2 5 mph SW 86 % 29.968 in Hg 0 in
09/01/2026 09:30 AM 88 °F 88 °F 89 °F 89 °F 79.8 °F 208 watt/m2 7 mph SW 87 % 29.971 in Hg 0 in
09/01/2026 09:15 AM 87 °F 87 °F 88 °F 88 °F 79.1 °F 401 watt/m2 7 mph WSW 89 % 29.974 in Hg 0 in
09/01/2026 09:00 AM 85 °F 85 °F 86 °F 85 °F 78.2 °F 265 watt/m2 6 mph SW 90 % 29.982 in Hg 0 in
09/01/2026 08:45 AM 83 °F 83 °F 84 °F 84 °F 77.5 °F 248 watt/m2 6 mph SW 91 % 29.982 in Hg 0 in
09/01/2026 08:30 AM 81 °F 81 °F 82 °F 82 °F 76.8 °F 311 watt/m2 0 mph --- 92 % 29.98 in Hg 0 in
09/01/2026 08:15 AM 78 °F 78 °F 79 °F 79 °F 76 °F 226 watt/m2 0 mph --- 93 % 29.98 in Hg 0 in
09/01/2026 08:00 AM 76 °F 76 °F 78 °F 76 °F 75.1 °F 151 watt/m2 0 mph --- 94 % 29.989 in Hg 0 in
09/01/2026 07:45 AM 75 °F 75 °F 75 °F 75 °F 74.7 °F 134 watt/m2 0 mph --- 94 % 29.987 in Hg 0 in
09/01/2026 07:30 AM 74 °F 74 °F 74 °F 74 °F 74.5 °F 67 watt/m2 0 mph --- 94 % 29.985 in Hg 0 in
09/01/2026 07:15 AM 73 °F 73 °F 73 °F 73 °F 74.3 °F 47 watt/m2 0 mph --- 94 % 29.988 in Hg 0 in
09/01/2026 07:00 AM 73 °F 73 °F 73 °F 73 °F 74.2 °F 15 watt/m2 0 mph --- 93 % 29.985 in Hg 0 in
09/01/2026 06:45 AM 73 °F 73 °F 73 °F 73 °F 74.2 °F 5 watt/m2 0 mph --- 93 % 29.986 in Hg 0 in
09/01/2026 06:30 AM 73 °F 73 °F 73 °F 73 °F 74.3 °F 0 watt/m2 0 mph --- 93 % 29.979 in Hg 0 in
09/01/2026 06:15 AM 73 °F 73 °F 73 °F 73 °F 74.3 °F 0 watt/m2 0 mph --- 93 % 29.983 in Hg 0 in
09/01/2026 06:00 AM 73 °F 73 °F 73 °F 73 °F 74.4 °F 0 watt/m2 0 mph --- 93 % 29.979 in Hg 0 in
09/01/2026 05:45 AM 74 °F 73 °F 73 °F 73 °F 74.5 °F 0 watt/m2 0 mph --- 92 % 29.978 in Hg 0 in
09/01/2026 05:30 AM 74 °F 73 °F 74 °F 73 °F 74.6 °F 0 watt/m2 0 mph --- 92 % 29.978 in Hg 0 in
09/01/2026 05:15 AM 74 °F 73 °F 74 °F 73 °F 74.7 °F 0 watt/m2 0 mph --- 92 % 29.985 in Hg 0 in
09/01/2026 05:00 AM 73 °F 73 °F 74 °F 73 °F 74.8 °F 0 watt/m2 0 mph --- 92 % 29.988 in Hg 0 in
09/01/2026 04:45 AM 73 °F 73 °F 74 °F 73 °F 74.8 °F 0 watt/m2 0 mph --- 92 % 29.988 in Hg 0 in
09/01/2026 04:30 AM 74 °F 73 °F 74 °F 74 °F 74.8 °F 0 watt/m2 0 mph --- 92 % 29.987 in Hg 0 in
09/01/2026 04:15 AM 74 °F 73 °F 74 °F 74 °F 75 °F 0 watt/m2 0 mph --- 91 % 29.989 in Hg 0 in
09/01/2026 04:00 AM 74 °F 74 °F 74 °F 74 °F 75.1 °F 0 watt/m2 0 mph --- 91 % 29.99 in Hg 0 in
09/01/2026 03:45 AM 74 °F 74 °F 74 °F 74 °F 75.2 °F 0 watt/m2 0 mph --- 91 % 29.988 in Hg 0 in
09/01/2026 03:30 AM 74 °F 74 °F 74 °F 74 °F 75.4 °F 0 watt/m2 0 mph --- 91 % 29.99 in Hg 0 in
09/01/2026 03:15 AM 74 °F 74 °F 74 °F 74 °F 75.4 °F 0 watt/m2 0 mph --- 91 % 29.991 in Hg 0 in
09/01/2026 03:00 AM 74 °F 74 °F 75 °F 74 °F 75.4 °F 0 watt/m2 3 mph SW 90 % 29.995 in Hg 0 in
09/01/2026 02:45 AM 74 °F 74 °F 75 °F 74 °F 75.5 °F 0 watt/m2 3 mph SW 90 % 30.001 in Hg 0 in
09/01/2026 02:30 AM 74 °F 74 °F 75 °F 75 °F 75.6 °F 0 watt/m2 4 mph SW 90 % 30.006 in Hg 0 in

Alarms Station information Line AP Subdivision WILMINGTON